date,City,No. Stations,Air Quality,Index Value,Prominent Pollutant
2019-01-23,Ambala,1.0,Satisfactory,70,PM10
2019-01-24,Ambala,1.0,Moderate,121,PM10
2019-01-26,Ambala,1.0,Moderate,109,PM10
2019-01-27,Ambala,1.0,Satisfactory,91,PM10
2019-01-28,Ambala,1.0,Moderate,103,PM10
2019-01-29,Ambala,1.0,Moderate,121,PM10
2019-01-30,Ambala,1.0,Moderate,132,PM10
2019-01-31,Ambala,1.0,Moderate,181,PM10
2019-02-01,Ambala,1.0,Moderate,124,PM10
2019-02-02,Ambala,1.0,Moderate,112,PM10
2019-02-03,Ambala,1.0,Satisfactory,85,PM10
2019-02-04,Ambala,1.0,Moderate,156,PM2.5
2019-02-05,Ambala,1.0,Moderate,186,PM10
2019-02-06,Ambala,1.0,Moderate,178,PM10
2019-02-07,Ambala,1.0,Satisfactory,96,PM10
2019-02-08,Ambala,1.0,Good,43,OZONE
2019-02-09,Ambala,1.0,Satisfactory,75,PM10
2019-02-10,Ambala,1.0,Moderate,126,PM10
2019-02-11,Ambala,1.0,Moderate,124,PM10
2019-02-12,Ambala,1.0,Moderate,152,PM10
2019-02-13,Ambala,1.0,Moderate,166,OZONE
2019-02-14,Ambala,1.0,Moderate,176,PM10
2019-02-15,Ambala,1.0,Satisfactory,54,PM10
2019-02-16,Ambala,1.0,Satisfactory,87,PM10
2019-02-17,Ambala,1.0,Satisfactory,90,PM10
2019-02-18,Ambala,1.0,Moderate,113,PM10
2019-02-19,Ambala,1.0,Satisfactory,71,SO2
2019-02-20,Ambala,1.0,Satisfactory,100,PM10
2019-02-21,Ambala,1.0,Satisfactory,69,PM10
2019-02-22,Ambala,1.0,Satisfactory,97,PM10
2019-02-23,Ambala,1.0,Satisfactory,71,PM10
2019-02-24,Ambala,1.0,Moderate,103,PM10
2019-02-25,Ambala,1.0,Moderate,121,PM10
2019-02-26,Ambala,1.0,Moderate,113,PM10
2019-02-28,Ambala,1.0,Satisfactory,68,PM10
2019-03-01,Ambala,1.0,Satisfactory,88,PM10
2019-03-02,Ambala,1.0,Moderate,101,PM10
2019-03-03,Ambala,1.0,Satisfactory,69,PM10
2019-03-04,Ambala,1.0,Satisfactory,74,PM10
2019-03-05,Ambala,1.0,Satisfactory,79,PM10
2019-03-06,Ambala,1.0,Moderate,106,PM10
2019-03-07,Ambala,1.0,Satisfactory,94,PM10
2019-03-08,Ambala,1.0,Satisfactory,98,PM10
2019-03-09,Ambala,1.0,Satisfactory,98,PM10
2019-03-10,Ambala,1.0,Moderate,153,OZONE
2019-03-11,Ambala,1.0,Moderate,111,PM10
2019-03-12,Ambala,1.0,Satisfactory,75,OZONE
2019-03-13,Ambala,1.0,Moderate,133,PM10
2019-03-15,Ambala,1.0,Satisfactory,73,PM10
2019-03-16,Ambala,1.0,Satisfactory,94,PM10
2019-03-17,Ambala,1.0,Satisfactory,99,PM10
2019-03-18,Ambala,1.0,Moderate,111,PM10
2019-03-19,Ambala,1.0,Moderate,106,PM10
2019-03-20,Ambala,1.0,Moderate,119,PM10
2019-03-21,Ambala,1.0,Moderate,113,PM10
2019-03-22,Ambala,1.0,Satisfactory,80,PM10
2019-03-23,Ambala,1.0,Satisfactory,100,PM10
2019-03-24,Ambala,1.0,Satisfactory,96,PM10
2019-03-25,Ambala,1.0,Moderate,110,PM10
2019-03-26,Ambala,1.0,Satisfactory,93,PM10
2019-03-27,Ambala,1.0,Moderate,112,PM10
2019-03-28,Ambala,1.0,Moderate,184,OZONE
2019-03-29,Ambala,1.0,Moderate,135,OZONE
2019-03-30,Ambala,1.0,Moderate,156,PM10
2019-03-31,Ambala,1.0,Moderate,132,PM10
2019-04-01,Ambala,1.0,Moderate,151,OZONE
2019-04-02,Ambala,1.0,Moderate,177,OZONE
2019-04-03,Ambala,1.0,Moderate,174,OZONE
2019-04-04,Ambala,1.0,Moderate,188,OZONE
2019-04-05,Ambala,1.0,Moderate,194,OZONE
2019-04-06,Ambala,1.0,Moderate,178,OZONE
2019-04-07,Ambala,1.0,Moderate,151,PM10
2019-04-08,Ambala,1.0,Poor,220,PM10
2019-04-09,Ambala,1.0,Poor,241,OZONE
2019-04-10,Ambala,1.0,Moderate,119,PM10
2019-04-12,Ambala,1.0,Moderate,135,PM10
2019-04-13,Ambala,1.0,Moderate,121,PM10
2019-04-14,Ambala,1.0,Moderate,121,PM10
2019-04-15,Ambala,1.0,Moderate,110,PM10
2019-04-16,Ambala,1.0,Moderate,144,PM10
2019-04-17,Ambala,1.0,Satisfactory,89,PM10
2019-04-18,Ambala,1.0,Satisfactory,83,OZONE
2019-04-19,Ambala,1.0,Satisfactory,95,OZONE
2019-04-20,Ambala,1.0,Moderate,176,OZONE
2019-04-21,Ambala,1.0,Moderate,177,OZONE
2019-04-22,Ambala,1.0,Moderate,197,OZONE
2019-04-23,Ambala,1.0,Poor,248,OZONE
2019-04-24,Ambala,1.0,Poor,222,OZONE
2019-04-25,Ambala,1.0,Moderate,175,OZONE
2019-04-26,Ambala,1.0,Moderate,152,PM2.5
2019-04-27,Ambala,1.0,Moderate,151,PM10
2019-04-28,Ambala,1.0,Moderate,168,PM10
2019-04-29,Ambala,1.0,Moderate,169,OZONE
2019-04-30,Ambala,1.0,Poor,236,OZONE
2019-05-01,Ambala,1.0,Poor,224,OZONE
2019-05-02,Ambala,1.0,Moderate,130,OZONE
2019-05-03,Ambala,1.0,Moderate,173,OZONE
2019-05-04,Ambala,1.0,Moderate,183,OZONE
2019-05-05,Ambala,1.0,Moderate,158,OZONE
2019-05-06,Ambala,1.0,Moderate,156,OZONE
2019-05-07,Ambala,1.0,Moderate,176,OZONE
2019-05-08,Ambala,1.0,Moderate,180,OZONE
2019-05-09,Ambala,1.0,Moderate,184,OZONE
2019-05-10,Ambala,1.0,Poor,258,PM10
2019-05-11,Ambala,1.0,Moderate,192,OZONE
2019-05-12,Ambala,1.0,Moderate,172,OZONE
2019-05-13,Ambala,1.0,Poor,239,OZONE
2019-05-14,Ambala,1.0,Moderate,171,OZONE
2019-05-15,Ambala,1.0,Moderate,151,PM2.5
2019-05-16,Ambala,1.0,Poor,217,PM2.5
2019-05-17,Ambala,1.0,Poor,286,PM2.5
2019-05-18,Ambala,1.0,Moderate,170,OZONE
2019-05-19,Ambala,1.0,Moderate,168,OZONE
2019-05-20,Ambala,1.0,Moderate,191,PM2.5
2019-05-21,Ambala,1.0,Poor,204,PM2.5
2019-05-22,Ambala,1.0,Poor,204,PM2.5
2019-05-23,Ambala,1.0,Moderate,193,PM10
2019-05-24,Ambala,1.0,Moderate,108,PM10
2019-05-25,Ambala,1.0,Moderate,163,OZONE
2019-05-26,Ambala,1.0,Moderate,194,OZONE
2019-05-27,Ambala,1.0,Moderate,192,OZONE
2019-05-28,Ambala,1.0,Moderate,190,OZONE
2019-05-29,Ambala,1.0,Moderate,177,OZONE
2019-05-30,Ambala,1.0,Moderate,173,OZONE
2019-05-31,Ambala,1.0,Moderate,158,OZONE
2019-06-01,Ambala,1.0,Moderate,166,PM10
2019-06-02,Ambala,1.0,Moderate,161,PM10
2019-06-03,Ambala,1.0,Moderate,148,PM10
2019-06-04,Ambala,1.0,Moderate,155,OZONE
2019-06-05,Ambala,1.0,Moderate,194,OZONE
2019-06-06,Ambala,1.0,Moderate,156,PM10
2019-06-07,Ambala,1.0,Moderate,186,OZONE
2019-06-08,Ambala,1.0,Moderate,195,OZONE
2019-06-09,Ambala,1.0,Moderate,172,OZONE
2019-06-10,Ambala,1.0,Moderate,169,OZONE
2019-06-11,Ambala,1.0,Moderate,162,PM10
2019-06-12,Ambala,1.0,Moderate,133,PM10
2019-06-13,Ambala,1.0,Moderate,143,PM10
2019-06-14,Ambala,1.0,Poor,255,OZONE
2019-06-15,Ambala,1.0,Poor,210,OZONE
2019-06-16,Ambala,1.0,Moderate,153,PM10
2019-06-17,Ambala,1.0,Moderate,134,PM10
2019-06-18,Ambala,1.0,Satisfactory,70,OZONE
2019-06-19,Ambala,1.0,Moderate,186,OZONE
2019-06-20,Ambala,1.0,Poor,209,OZONE
2019-06-21,Ambala,1.0,Poor,270,OZONE
2019-06-22,Ambala,1.0,Poor,255,OZONE
2019-06-23,Ambala,1.0,Poor,212,OZONE
2019-06-24,Ambala,1.0,Moderate,153,PM2.5
2019-06-25,Ambala,1.0,Moderate,131,PM2.5
2019-06-26,Ambala,1.0,Moderate,158,OZONE
2019-06-27,Ambala,1.0,Poor,232,PM2.5
2019-06-28,Ambala,1.0,Moderate,178,PM2.5
2019-06-29,Ambala,1.0,Moderate,172,PM10
2019-06-30,Ambala,1.0,Moderate,168,PM2.5
2019-07-01,Ambala,1.0,Moderate,132,PM10
2019-07-02,Ambala,1.0,Moderate,130,PM10
2019-07-03,Ambala,1.0,Moderate,118,PM10
2019-07-04,Ambala,1.0,Satisfactory,92,PM10
2019-07-05,Ambala,1.0,Satisfactory,75,OZONE
2019-07-06,Ambala,1.0,Satisfactory,78,OZONE
2019-07-07,Ambala,1.0,Satisfactory,68,OZONE
2019-07-08,Ambala,1.0,Satisfactory,76,OZONE
2019-07-09,Ambala,1.0,Satisfactory,71,PM10
2019-07-10,Ambala,1.0,Satisfactory,73,PM10
2019-07-11,Ambala,1.0,Moderate,139,PM10
2019-07-12,Ambala,1.0,Satisfactory,85,PM10
2019-07-13,Ambala,1.0,Moderate,171,PM10
2019-07-14,Ambala,1.0,Moderate,129,PM10
2019-07-17,Ambala,1.0,Satisfactory,66,PM10
2019-07-18,Ambala,1.0,Satisfactory,96,PM10
2019-07-19,Ambala,1.0,Moderate,108,PM10
2019-07-20,Ambala,1.0,Moderate,109,PM10
2019-07-21,Ambala,1.0,Moderate,104,PM2.5
2019-07-22,Ambala,1.0,Satisfactory,74,PM10
2019-07-23,Ambala,1.0,Satisfactory,99,PM10
2019-07-24,Ambala,1.0,Moderate,133,PM2.5
2019-07-25,Ambala,1.0,Satisfactory,83,PM10
2019-07-26,Ambala,1.0,Satisfactory,54,PM10
2019-07-27,Ambala,1.0,Good,44,PM10
2019-07-28,Ambala,1.0,Good,41,PM10
2019-07-29,Ambala,1.0,Good,41,OZONE
2019-07-30,Ambala,1.0,Satisfactory,62,PM10
2019-07-31,Ambala,1.0,Good,48,PM10
2019-08-01,Ambala,1.0,Satisfactory,90,PM10
2019-08-02,Ambala,1.0,Satisfactory,66,PM10
2019-08-03,Ambala,1.0,Satisfactory,77,PM10
2019-08-04,Ambala,1.0,Satisfactory,74,PM10
2019-08-05,Ambala,1.0,Satisfactory,71,PM10
2019-08-06,Ambala,1.0,Satisfactory,72,PM10
2019-08-07,Ambala,1.0,Satisfactory,61,PM10
2019-08-08,Ambala,1.0,Satisfactory,75,PM10
2019-08-09,Ambala,1.0,Satisfactory,59,PM10
2019-08-10,Ambala,1.0,Satisfactory,52,PM10
2019-08-11,Ambala,1.0,Satisfactory,61,PM10
2019-08-12,Ambala,1.0,Satisfactory,82,PM2.5
2019-08-13,Ambala,1.0,Satisfactory,72,PM10
2019-08-14,Ambala,1.0,Good,37,OZONE
2019-08-15,Ambala,1.0,Satisfactory,94,PM10
2019-08-16,Ambala,1.0,Good,50,PM10
2019-08-17,Ambala,1.0,Good,43,PM10
2019-08-18,Ambala,1.0,Good,37,SO2
2019-08-19,Ambala,1.0,Good,40,SO2
2019-08-20,Ambala,1.0,Good,46,PM10
2019-08-21,Ambala,1.0,Satisfactory,66,PM10
2019-08-22,Ambala,1.0,Satisfactory,74,PM10
2019-08-23,Ambala,1.0,Moderate,109,PM10
2019-08-24,Ambala,1.0,Satisfactory,99,PM10
2019-08-25,Ambala,1.0,Satisfactory,64,PM10
2019-08-26,Ambala,1.0,Satisfactory,54,PM10
2019-08-27,Ambala,1.0,Satisfactory,66,PM10
2019-08-28,Ambala,1.0,Satisfactory,86,PM10
2019-08-29,Ambala,1.0,Satisfactory,76,PM2.5
2019-08-30,Ambala,1.0,Satisfactory,76,PM2.5
2019-08-31,Ambala,1.0,Satisfactory,87,PM2.5
2019-09-01,Ambala,1.0,Satisfactory,79,PM2.5
2019-09-02,Ambala,1.0,Satisfactory,60,PM2.5
2019-09-04,Ambala,1.0,Moderate,109,PM2.5
2019-09-05,Ambala,1.0,Satisfactory,68,PM10
2019-09-06,Ambala,1.0,Satisfactory,58,PM10
2019-09-07,Ambala,1.0,Satisfactory,59,PM10
2019-09-08,Ambala,1.0,Satisfactory,53,PM10
2019-09-09,Ambala,1.0,Moderate,106,PM2.5
2019-09-10,Ambala,1.0,Moderate,101,PM10
2019-09-11,Ambala,1.0,Moderate,131,PM2.5
2019-09-12,Ambala,1.0,Moderate,112,PM2.5
2019-09-13,Ambala,1.0,Satisfactory,80,PM10
2019-09-14,Ambala,1.0,Satisfactory,74,PM10
2019-09-15,Ambala,1.0,Satisfactory,62,PM10
2019-09-16,Ambala,1.0,Satisfactory,73,PM10
2019-09-17,Ambala,1.0,Moderate,103,PM10
2019-09-18,Ambala,1.0,Moderate,107,PM10
2019-09-19,Ambala,1.0,Satisfactory,68,PM10
2019-09-20,Ambala,1.0,Satisfactory,62,PM10
2019-09-21,Ambala,1.0,Satisfactory,76,PM10
2019-09-22,Ambala,1.0,Satisfactory,95,PM10
2019-09-23,Ambala,1.0,Satisfactory,61,PM10
2019-09-24,Ambala,1.0,Satisfactory,82,PM10
2019-09-25,Ambala,1.0,Satisfactory,92,PM10
2019-09-26,Ambala,1.0,Moderate,102,PM10
2019-09-27,Ambala,1.0,Satisfactory,75,PM10
2019-09-28,Ambala,1.0,Satisfactory,61,PM10
2019-09-29,Ambala,1.0,Good,36,SO2
2019-09-30,Ambala,1.0,Good,44,PM10
2019-10-01,Ambala,1.0,Satisfactory,60,PM10
2019-10-02,Ambala,1.0,Satisfactory,90,PM10
2019-10-03,Ambala,1.0,Satisfactory,95,PM10
2019-10-04,Ambala,1.0,Satisfactory,85,PM10
2019-10-05,Ambala,1.0,Satisfactory,83,PM10
2019-10-06,Ambala,1.0,Satisfactory,96,PM10
2019-10-07,Ambala,1.0,Moderate,117,PM10
2019-10-08,Ambala,1.0,Moderate,123,PM10
2019-10-09,Ambala,1.0,Moderate,123,PM10
2019-10-10,Ambala,1.0,Moderate,130,PM10
2019-10-11,Ambala,1.0,Moderate,128,PM2.5
2019-10-12,Ambala,1.0,Moderate,142,PM2.5
2019-10-13,Ambala,1.0,Moderate,165,PM2.5
2019-10-14,Ambala,1.0,Poor,210,PM2.5
2019-10-15,Ambala,1.0,Poor,230,PM2.5
2019-10-16,Ambala,1.0,Poor,211,PM2.5
2019-10-17,Ambala,1.0,Moderate,184,PM2.5
2019-10-18,Ambala,1.0,Moderate,151,PM2.5
2019-10-19,Ambala,1.0,Moderate,148,PM2.5
2019-10-20,Ambala,1.0,Moderate,167,PM2.5
2019-10-21,Ambala,1.0,Moderate,186,PM2.5
2019-10-22,Ambala,1.0,Poor,204,PM2.5
2019-10-23,Ambala,1.0,Poor,220,PM2.5
2019-10-24,Ambala,1.0,Poor,253,PM2.5
2019-10-25,Ambala,1.0,Poor,225,PM2.5
2019-10-26,Ambala,1.0,Poor,300,PM2.5
2019-10-27,Ambala,1.0,Very Poor,343,PM2.5
2019-10-28,Ambala,1.0,Very Poor,385,PM2.5
2019-10-29,Ambala,1.0,Very Poor,353,PM2.5
2019-10-30,Ambala,1.0,Very Poor,356,PM2.5
2019-10-31,Ambala,1.0,Very Poor,367,PM2.5
2019-11-01,Ambala,1.0,Very Poor,350,PM2.5
2019-11-02,Ambala,1.0,Very Poor,376,PM2.5
2019-11-03,Ambala,1.0,Severe,403,PM2.5
2019-11-04,Ambala,1.0,Very Poor,321,PM2.5
2019-11-05,Ambala,1.0,Poor,245,PM2.5
2019-11-06,Ambala,1.0,Poor,280,PM2.5
2019-11-07,Ambala,1.0,Moderate,153,PM2.5
2019-11-08,Ambala,1.0,Moderate,109,PM2.5
2019-11-09,Ambala,1.0,Moderate,105,PM10
2019-11-10,Ambala,1.0,Poor,282,PM2.5
2019-11-11,Ambala,1.0,Poor,298,PM2.5
2019-11-12,Ambala,1.0,Very Poor,332,PM2.5
2019-11-13,Ambala,1.0,Poor,298,PM2.5
2019-11-14,Ambala,1.0,Poor,258,PM2.5
2019-11-15,Ambala,1.0,Poor,274,PM2.5
2019-11-16,Ambala,1.0,Moderate,137,PM10
2019-11-17,Ambala,1.0,Satisfactory,86,PM10
2019-11-18,Ambala,1.0,Poor,205,PM2.5
2019-11-19,Ambala,1.0,Moderate,199,PM2.5
2019-11-20,Ambala,1.0,Poor,289,PM2.5
2019-11-21,Ambala,1.0,Poor,219,PM2.5
2019-11-22,Ambala,1.0,Poor,230,PM2.5
2019-11-23,Ambala,1.0,Moderate,176,PM2.5
2019-11-24,Ambala,1.0,Moderate,102,PM10
2019-11-25,Ambala,1.0,Moderate,113,PM10
2019-11-26,Ambala,1.0,Moderate,157,PM10
2019-11-27,Ambala,1.0,Good,41,PM10
2019-11-28,Ambala,1.0,Satisfactory,75,PM10
2019-11-29,Ambala,1.0,Moderate,105,PM10
2019-11-30,Ambala,1.0,Moderate,101,PM10
2019-12-01,Ambala,1.0,Moderate,172,PM2.5
2019-12-02,Ambala,1.0,Poor,207,PM2.5
2019-12-03,Ambala,1.0,Poor,231,PM2.5
2019-12-04,Ambala,1.0,Poor,266,PM2.5
2019-12-05,Ambala,1.0,Very Poor,308,PM2.5
2019-12-06,Ambala,1.0,Poor,251,PM2.5
2019-12-07,Ambala,1.0,Poor,223,PM2.5
2019-12-08,Ambala,1.0,Poor,226,PM2.5
2019-12-09,Ambala,1.0,Poor,241,PM2.5
2019-12-10,Ambala,1.0,Very Poor,309,PM2.5
2019-12-11,Ambala,1.0,Very Poor,307,PM2.5
2019-12-12,Ambala,1.0,Very Poor,303,PM2.5
2019-12-13,Ambala,1.0,Satisfactory,72,PM10
2019-12-14,Ambala,1.0,Satisfactory,60,O3
2019-12-15,Ambala,1.0,Satisfactory,87,PM10
2019-12-16,Ambala,1.0,Moderate,126,PM2.5
2019-12-17,Ambala,1.0,Moderate,164,PM2.5
2019-12-18,Ambala,1.0,Moderate,159,PM2.5
2019-12-19,Ambala,1.0,Poor,223,PM2.5
2019-12-20,Ambala,1.0,Poor,277,PM2.5
2019-12-21,Ambala,1.0,Moderate,184,PM2.5
2019-12-22,Ambala,1.0,Moderate,164,PM2.5
2019-12-23,Ambala,1.0,Moderate,125,PM2.5
2019-12-24,Ambala,1.0,Moderate,197,PM2.5
2019-12-25,Ambala,1.0,Moderate,154,PM2.5
2019-12-26,Ambala,1.0,Poor,253,PM2.5
2019-12-27,Ambala,1.0,Very Poor,301,PM2.5
2019-12-28,Ambala,1.0,Poor,239,PM2.5
2019-12-29,Ambala,1.0,Moderate,181,PM2.5
2019-12-30,Ambala,1.0,Moderate,131,PM2.5
2019-12-31,Ambala,1.0,Poor,251,PM2.5
2020-01-01,Ambala,1.0,Poor,269,PM2.5
2020-01-02,Ambala,1.0,Poor,241,PM2.5
2020-01-03,Ambala,1.0,Poor,236,PM2.5
2020-01-04,Ambala,1.0,Poor,258,PM2.5
2020-01-05,Ambala,1.0,Poor,207,PM2.5
2020-01-06,Ambala,1.0,Moderate,107,O3
2020-01-07,Ambala,1.0,Satisfactory,61,PM2.5
2020-01-08,Ambala,1.0,Satisfactory,54,NO2
2020-01-09,Ambala,1.0,Satisfactory,73,PM10
2020-01-10,Ambala,1.0,Moderate,196,O3
2020-01-11,Ambala,1.0,Moderate,176,O3
2020-01-12,Ambala,1.0,Poor,203,PM2.5
2020-01-13,Ambala,1.0,Poor,291,PM2.5
2020-01-14,Ambala,1.0,Moderate,131,PM2.5
2020-01-15,Ambala,1.0,Moderate,128,PM2.5
2020-01-16,Ambala,1.0,Satisfactory,91,PM2.5
2020-01-17,Ambala,1.0,Moderate,168,PM2.5
2020-01-18,Ambala,1.0,Moderate,156,O3
2020-01-19,Ambala,1.0,Moderate,153,O3
2020-01-20,Ambala,1.0,Moderate,156,PM2.5
2020-01-21,Ambala,1.0,Poor,247,PM2.5
2020-01-22,Ambala,1.0,Moderate,175,PM2.5
2020-01-23,Ambala,1.0,Satisfactory,100,PM10
2020-01-24,Ambala,1.0,Moderate,112,PM10
2020-01-25,Ambala,1.0,Moderate,156,PM2.5
2020-01-26,Ambala,1.0,Poor,258,PM2.5
2020-01-27,Ambala,1.0,Moderate,173,PM2.5
2020-01-28,Ambala,1.0,Poor,208,PM2.5
2020-01-29,Ambala,1.0,Satisfactory,58,O3
2020-01-30,Ambala,1.0,Satisfactory,90,PM10
2020-01-31,Ambala,1.0,Moderate,129,PM2.5
2020-02-01,Ambala,1.0,Moderate,176,O3
2020-02-02,Ambala,1.0,Moderate,199,O3
2020-02-03,Ambala,1.0,Poor,228,PM2.5
2020-02-04,Ambala,1.0,Poor,252,PM2.5
2020-02-05,Ambala,1.0,Moderate,120,PM10
2020-02-06,Ambala,1.0,Moderate,146,PM2.5
2020-02-07,Ambala,1.0,Moderate,133,PM2.5
2020-02-08,Ambala,1.0,Moderate,176,PM2.5
2020-02-09,Ambala,1.0,Moderate,153,PM2.5
2020-02-10,Ambala,1.0,Moderate,192,PM2.5
2020-02-11,Ambala,1.0,Moderate,191,PM2.5
2020-02-12,Ambala,1.0,Moderate,199,PM2.5
2020-02-13,Ambala,1.0,Moderate,114,PM10
2020-02-14,Ambala,1.0,Moderate,112,PM10
2020-02-15,Ambala,1.0,Moderate,126,PM10
2020-02-16,Ambala,1.0,Moderate,135,PM2.5
2020-02-17,Ambala,1.0,Moderate,122,PM2.5
2020-02-18,Ambala,1.0,Moderate,192,PM2.5
2020-02-19,Ambala,1.0,Moderate,182,PM2.5
2020-02-20,Ambala,1.0,Moderate,130,PM10
2020-02-21,Ambala,1.0,Satisfactory,86,PM10
2020-02-22,Ambala,1.0,Satisfactory,87,PM10
2020-02-23,Ambala,1.0,Moderate,101,PM10
2020-02-24,Ambala,1.0,Satisfactory,88,PM10
2020-02-25,Ambala,1.0,Moderate,111,PM10
2020-02-26,Ambala,1.0,Moderate,107,PM10
2020-02-27,Ambala,1.0,Moderate,189,PM2.5
2020-02-28,Ambala,1.0,Moderate,167,PM2.5
2020-02-29,Ambala,1.0,Moderate,114,PM2.5
2020-03-01,Ambala,1.0,Satisfactory,65,PM10
2020-03-02,Ambala,1.0,Satisfactory,99,PM10
2020-03-03,Ambala,1.0,Moderate,108,PM10
2020-03-04,Ambala,1.0,Moderate,130,PM10
2020-03-05,Ambala,1.0,Satisfactory,84,PM10
2020-03-06,Ambala,1.0,Satisfactory,61,PM10
2020-03-07,Ambala,1.0,Good,27,PM2.5
2020-03-08,Ambala,1.0,Satisfactory,76,PM10
2020-03-09,Ambala,1.0,Satisfactory,66,PM10
2020-03-10,Ambala,1.0,Moderate,111,PM10
2020-03-11,Ambala,1.0,Satisfactory,92,PM10
2020-03-12,Ambala,1.0,Good,45,PM10
2020-03-13,Ambala,1.0,Satisfactory,67,PM10
2020-03-14,Ambala,1.0,Good,42,PM10
2020-03-15,Ambala,1.0,Good,41,PM10
2020-03-16,Ambala,1.0,Satisfactory,80,PM10
2020-03-17,Ambala,1.0,Moderate,109,PM10
2020-03-18,Ambala,1.0,Moderate,107,PM10
2020-03-19,Ambala,1.0,Moderate,122,PM10
2020-03-20,Ambala,1.0,Moderate,126,PM10
2020-03-21,Ambala,1.0,Moderate,128,PM10
2020-03-22,Ambala,1.0,Satisfactory,87,PM10
2020-03-23,Ambala,1.0,Satisfactory,70,PM10
2020-03-24,Ambala,1.0,Satisfactory,93,PM10
2020-03-25,Ambala,1.0,Satisfactory,53,PM10
2020-03-26,Ambala,1.0,Satisfactory,58,PM10
2020-03-27,Ambala,1.0,Satisfactory,60,PM10
2020-03-28,Ambala,1.0,Good,36,O3
2020-03-29,Ambala,1.0,Good,39,PM10
2020-03-30,Ambala,1.0,Good,48,PM10
2020-03-31,Ambala,1.0,Satisfactory,57,PM10
2020-04-01,Ambala,1.0,Good,48,PM10
2020-04-02,Ambala,1.0,Satisfactory,53,PM10
2020-04-03,Ambala,1.0,Good,42,PM10
2020-04-04,Ambala,1.0,Satisfactory,53,PM10
2020-04-05,Ambala,1.0,Satisfactory,63,PM10
2020-04-07,Ambala,1.0,Good,42,PM2.5
2020-04-08,Ambala,1.0,Good,47,O3
2020-04-09,Ambala,1.0,Good,48,O3
2020-04-10,Ambala,1.0,Satisfactory,54,PM10
2020-04-11,Ambala,1.0,Satisfactory,78,PM10
2020-04-12,Ambala,1.0,Satisfactory,61,PM10
2020-04-13,Ambala,1.0,Satisfactory,67,PM10
2020-04-14,Ambala,1.0,Satisfactory,71,PM10
2020-04-15,Ambala,1.0,Satisfactory,93,PM10
2020-04-16,Ambala,1.0,Satisfactory,92,PM10
2020-04-17,Ambala,1.0,Satisfactory,80,PM10
2020-04-18,Ambala,1.0,Satisfactory,62,PM10
2020-04-19,Ambala,1.0,Satisfactory,65,PM10
2020-04-20,Ambala,1.0,Satisfactory,62,PM10
2020-04-21,Ambala,1.0,Good,42,O3
2020-04-23,Ambala,1.0,Satisfactory,60,PM2.5
2020-04-24,Ambala,1.0,Satisfactory,70,PM2.5
2020-04-25,Ambala,1.0,Satisfactory,76,PM2.5
2020-04-26,Ambala,1.0,Satisfactory,51,PM2.5
2020-04-27,Ambala,1.0,Good,47,O3
2020-04-28,Ambala,1.0,Good,39,O3
2020-04-29,Ambala,1.0,Satisfactory,55,PM2.5
2020-04-30,Ambala,1.0,Satisfactory,83,PM2.5
2020-05-01,Ambala,1.0,Satisfactory,62,PM2.5
2020-05-02,Ambala,1.0,Satisfactory,64,PM2.5
2020-05-03,Ambala,1.0,Satisfactory,63,PM2.5
2020-05-04,Ambala,1.0,Satisfactory,59,O3
2020-05-05,Ambala,1.0,Satisfactory,62,PM2.5
2020-05-06,Ambala,1.0,Satisfactory,59,PM2.5
2020-05-07,Ambala,1.0,Good,47,PM2.5
2020-05-28,Ambala,1.0,Good,47,PM2.5
2020-05-29,Ambala,1.0,Good,42,PM2.5
2020-05-30,Ambala,1.0,Good,42,PM2.5
2020-05-31,Ambala,1.0,Good,46,PM2.5
2020-06-01,Ambala,1.0,Good,49,O3
2020-06-02,Ambala,1.0,Satisfactory,53,PM2.5
2020-06-03,Ambala,1.0,Satisfactory,71,PM2.5
2020-06-04,Ambala,1.0,Satisfactory,67,PM2.5
2020-06-06,Ambala,1.0,Good,42,PM2.5
2020-06-07,Ambala,1.0,Satisfactory,52,PM2.5
2020-06-08,Ambala,1.0,Satisfactory,58,O3
2020-06-09,Ambala,1.0,Satisfactory,74,PM2.5
2020-06-10,Ambala,1.0,Satisfactory,80,PM2.5
2020-06-11,Ambala,1.0,Satisfactory,76,PM2.5
2020-06-12,Ambala,1.0,Satisfactory,89,PM2.5
2020-06-13,Ambala,1.0,Satisfactory,80,PM2.5
2020-06-14,Ambala,1.0,Satisfactory,82,PM2.5
2020-06-15,Ambala,1.0,Satisfactory,78,PM2.5
2020-06-16,Ambala,1.0,Satisfactory,56,PM2.5
2020-06-17,Ambala,1.0,Satisfactory,56,PM2.5
2020-06-18,Ambala,1.0,Satisfactory,56,PM2.5
2020-06-19,Ambala,1.0,Satisfactory,66,PM2.5
2020-06-20,Ambala,1.0,Satisfactory,63,PM2.5
2020-06-21,Ambala,1.0,Satisfactory,76,PM2.5
2020-06-22,Ambala,1.0,Satisfactory,57,PM2.5
2020-06-23,Ambala,1.0,Satisfactory,66,PM2.5
2020-06-24,Ambala,1.0,Good,42,PM2.5
2020-06-25,Ambala,1.0,Satisfactory,57,PM2.5
2020-06-26,Ambala,1.0,Satisfactory,75,PM2.5
2020-06-28,Ambala,1.0,Moderate,111,PM2.5
2020-06-29,Ambala,1.0,Moderate,107,PM2.5
2020-06-30,Ambala,1.0,Good,50,O3
2020-07-01,Ambala,1.0,Satisfactory,73,PM10
2020-07-02,Ambala,1.0,Satisfactory,95,PM2.5
2020-07-03,Ambala,1.0,Moderate,104,PM10
2020-07-04,Ambala,1.0,Satisfactory,77,PM2.5
2020-07-05,Ambala,1.0,Good,42,O3
2020-07-06,Ambala,1.0,Good,44,O3
2020-07-07,Ambala,1.0,Good,46,PM10
2020-07-08,Ambala,1.0,Good,30,O3
2020-07-10,Ambala,1.0,Satisfactory,60,PM10
2020-07-11,Ambala,1.0,Good,47,PM10
2020-07-12,Ambala,1.0,Good,40,O3
2020-07-13,Ambala,1.0,Satisfactory,52,PM10
2020-07-14,Ambala,1.0,Satisfactory,69,PM10
2020-07-15,Ambala,1.0,Satisfactory,74,PM10
2020-07-16,Ambala,1.0,Good,49,O3
2020-07-17,Ambala,1.0,Satisfactory,56,PM2.5
2020-07-18,Ambala,1.0,Satisfactory,67,PM10
2020-07-19,Ambala,1.0,Satisfactory,55,PM10
2020-07-20,Ambala,1.0,Satisfactory,58,PM10
2020-07-21,Ambala,1.0,Good,34,O3
2020-07-22,Ambala,1.0,Good,45,PM2.5
2020-07-23,Ambala,1.0,Satisfactory,57,PM10
2020-07-24,Ambala,1.0,Satisfactory,66,PM10
2020-07-25,Ambala,1.0,Satisfactory,57,PM10
2020-07-26,Ambala,1.0,Good,43,PM10
2020-07-27,Ambala,1.0,Satisfactory,72,PM10
2020-07-28,Ambala,1.0,Satisfactory,72,PM10
2020-07-29,Ambala,1.0,Satisfactory,57,PM10
2020-07-30,Ambala,1.0,Good,28,PM10
2020-07-31,Ambala,1.0,Good,41,O3
2020-08-01,Ambala,1.0,Good,47,PM10
2020-08-02,Ambala,1.0,Satisfactory,53,PM10
2020-08-03,Ambala,1.0,Satisfactory,69,PM10
2020-08-04,Ambala,1.0,Satisfactory,58,PM10
2020-08-05,Ambala,1.0,Satisfactory,56,PM10
2020-08-06,Ambala,1.0,Satisfactory,51,O3
2020-08-07,Ambala,1.0,Good,46,O3
2020-08-08,Ambala,1.0,Satisfactory,52,PM10
2020-08-09,Ambala,1.0,Satisfactory,80,PM10
2020-08-10,Ambala,1.0,Good,49,O3
2020-08-11,Ambala,1.0,Good,50,PM10
2020-08-12,Ambala,1.0,Good,36,PM10
2020-08-13,Ambala,1.0,Satisfactory,55,PM10
2020-08-14,Ambala,1.0,Good,44,PM10
2020-08-15,Ambala,1.0,Good,42,PM10
2020-08-16,Ambala,1.0,Good,40,PM10
2020-08-17,Ambala,1.0,Good,46,O3
2020-08-18,Ambala,1.0,Good,36,PM10
2020-08-19,Ambala,1.0,Good,41,PM10
2020-08-20,Ambala,1.0,Good,23,O3
2020-08-21,Ambala,1.0,Good,32,O3
2020-08-22,Ambala,1.0,Satisfactory,52,PM10
2020-08-25,Ambala,1.0,Good,41,O3
2020-08-26,Ambala,1.0,Good,49,O3
2020-08-27,Ambala,1.0,Good,36,O3
2020-08-28,Ambala,1.0,Good,46,PM10
2020-08-29,Ambala,1.0,Good,44,O3
2020-08-30,Ambala,1.0,Good,48,PM10
2020-08-31,Ambala,1.0,Satisfactory,51,O3
2020-09-01,Ambala,1.0,Good,40,O3
2020-09-02,Ambala,1.0,Satisfactory,54,PM10
2020-09-03,Ambala,1.0,Satisfactory,52,PM10
2020-09-04,Ambala,1.0,Satisfactory,51,PM10
2020-09-05,Ambala,1.0,Satisfactory,70,PM2.5
2020-09-06,Ambala,1.0,Satisfactory,68,PM10
2020-09-07,Ambala,1.0,Good,50,PM10
2020-09-08,Ambala,1.0,Satisfactory,68,PM10
2020-09-09,Ambala,1.0,Satisfactory,88,O3
2020-09-10,Ambala,1.0,Satisfactory,93,PM2.5
2020-09-11,Ambala,1.0,Poor,215,PM10
2020-09-12,Ambala,1.0,Moderate,155,PM10
2020-09-13,Ambala,1.0,Poor,256,PM10
2020-09-14,Ambala,1.0,Poor,233,PM10
2020-09-15,Ambala,1.0,Moderate,143,PM10
2020-09-16,Ambala,1.0,Moderate,133,PM10
2020-09-17,Ambala,1.0,Moderate,137,PM10
2020-09-18,Ambala,1.0,Moderate,123,PM10
2020-09-19,Ambala,1.0,Moderate,121,PM10
2020-09-20,Ambala,1.0,Moderate,134,PM10
2020-09-21,Ambala,1.0,Moderate,128,PM10
2020-09-22,Ambala,1.0,Moderate,113,PM10
2020-09-23,Ambala,1.0,Satisfactory,72,O3
2020-09-24,Ambala,1.0,Satisfactory,82,PM10
2020-09-25,Ambala,1.0,Moderate,119,PM10
2020-09-26,Ambala,1.0,Moderate,135,PM10
2020-09-27,Ambala,1.0,Moderate,124,PM10
2020-09-28,Ambala,1.0,Moderate,137,PM10
2020-09-29,Ambala,1.0,Moderate,153,O3
2020-09-30,Ambala,1.0,Moderate,185,O3
2020-10-01,Ambala,1.0,Moderate,134,PM10
2020-10-02,Ambala,1.0,Moderate,191,O3
2020-10-03,Ambala,1.0,Moderate,157,PM10
2020-10-04,Ambala,1.0,Moderate,158,O3
2020-10-05,Ambala,1.0,Moderate,171,O3
2020-10-06,Ambala,1.0,Moderate,181,O3
2020-10-07,Ambala,1.0,Moderate,182,PM2.5
2020-10-08,Ambala,1.0,Moderate,198,PM2.5
2020-10-09,Ambala,1.0,Moderate,180,PM2.5
2020-10-10,Ambala,1.0,Poor,201,PM2.5